Location: Siloam Springs
(36.1880°N, 94.5400°W)
Time: 03:54:24
(UTC-05:00)

ISS - Visible Passes

Search period start: 26 June 2017 00:00
Search period end: 06 July 2017 00:00
Orbit: 401 x 408 km, 51.6° (Epoch: 26 June)

Date Brightness Start Highest point End Pass type
(mag) Time Alt. Az. Time Alt. Az. Time Alt. Az.
03 Jul -3.0 05:32:19 10° SSW 05:35:25 44° SE 05:38:33 10° ENE visible
04 Jul -1.9 04:41:39 15° S 04:43:18 21° SE 04:45:49 10° E visible
05 Jul -3.6 05:24:12 11° WSW 05:27:17 63° NW 05:30:31 10° NE visible
